Weather History for Evansville, IN

Change the Weather History Date:

Tuesday, September 13, 2011

  Actual Average Record
Temperature  
Mean Temperature 76 °F 70 °F  
Max Temperature 92 °F 83 °F 99 °F (1939)
Min Temperature 60 °F 58 °F 40 °F (1940)
Degree Days  
Heating Degree Days 0 1  
Month to date heating degree days 7 3  
Since 1 July heating degree days 7 4  
Cooling Degree Days 11 6  
Month to date cooling degree days 96 102  
Year to date cooling degree days 1601 1301  
Growing Degree Days 26 (Base 50)    
Moisture  
Dew Point 60 °F    
Average Humidity 63    
Maximum Humidity 90    
Minimum Humidity 36    
Precipitation  
Precipitation 0.00 in 0.11 in 1.35 in (1977)
Month to date precipitation 0.60 1.31  
Year to date precipitation 45.58 32.23  
Snow  
Snow 0.00 in 0.00 in 0.00 in ()
Month to date snowfall 0.0 0.0  
Since 1 July snowfall 0.0 0.0  
Since 1 September snowfall 0.0 0.0  
Snow Depth 0.00 in    
Sea Level Pressure  
Sea Level Pressure 29.95 in    
Wind  
Wind Speed 6 mph (SW)    
Max Wind Speed 18 mph    
Max Gust Speed 22 mph    
Visibility 10 miles    
Events      
T = Trace of Precipitation, MM = Missing Value Source: NWS Daily Summary

Daily Weather History Graph

Daily Weather History Graph

Search for Another Location

Airport:

Trip Planner

Search our weather history database for the weather conditions in past years. The results will help you decide how hot, cold, wet, or windy it might be!

Date:

Astronomy

Sep. 13, 2011 Rise Set
Actual Time 6:29 AM CDT 7:01 PM CDT
Civil Twilight 6:03 AM CDT 7:28 PM CDT
Nautical Twilight 5:32 AM CDT 7:59 PM CDT
Astronomical Twilight 5:00 AM CDT 8:30 PM CDT
Moon 7:19 PM CDT (9/13) 7:41 AM CDT (9/13)
Length of Visible Light 13h 24m
Length of Day
12h 31m
Full, 98% of the Moon is Illuminated
Sep 13
Full
Sep 20
Last Quarter
Sep 27
New
Oct 3
First Quarter
Oct 11
Full

Hourly Weather History & Observations

Time (CDT) Temp. Heat Index Dew Point Humidity Pressure Visibility Wind Dir Wind Speed Gust Speed Precip Events Conditions
12:54 AM 64.9 °F - 57.9 °F 78% 29.99 in 10.0 mi Calm Calm - N/A   Clear
1:54 AM 64.9 °F - 57.0 °F 75% 29.98 in 9.0 mi SSW 3.5 mph - N/A   Clear
2:54 AM 64.9 °F - 57.9 °F 78% 29.97 in 10.0 mi Calm Calm - N/A   Clear
3:54 AM 63.0 °F - 57.9 °F 84% 29.97 in 9.0 mi Calm Calm - N/A   Clear
4:54 AM 61.0 °F - 57.0 °F 87% 29.98 in 7.0 mi Calm Calm - N/A   Clear
5:54 AM 62.1 °F - 57.0 °F 84% 29.99 in 8.0 mi Calm Calm - N/A   Clear
6:54 AM 64.0 °F - 57.9 °F 80% 29.99 in 8.0 mi Calm Calm - N/A   Clear
7:54 AM 68.0 °F - 60.1 °F 76% 29.99 in 9.0 mi SSW 5.8 mph - N/A   Clear
8:54 AM 73.0 °F - 61.0 °F 66% 29.98 in 10.0 mi SW 9.2 mph - N/A   Clear
9:54 AM 79.0 °F - 61.0 °F 54% 29.99 in 10.0 mi SW 11.5 mph - N/A   Clear
10:54 AM 84.0 °F 84.0 °F 60.1 °F 44% 29.98 in 10.0 mi SSW 12.7 mph - N/A   Clear
11:54 AM 87.1 °F 86.7 °F 60.1 °F 40% 29.96 in 10.0 mi SW 12.7 mph - N/A   Clear
12:54 PM 89.6 °F 89.5 °F 60.8 °F 38% 29.97 in 10.0 mi WSW 13.8 mph 19.6 mph N/A   Clear
1:54 PM 91.0 °F 90.9 °F 61.0 °F 36% 29.94 in 10.0 mi SSW 12.7 mph 19.6 mph N/A   Clear
2:54 PM 91.0 °F 90.9 °F 61.0 °F 36% 29.92 in 10.0 mi South 11.5 mph - N/A   Clear
3:54 PM 91.0 °F 90.5 °F 60.1 °F 35% 29.91 in 10.0 mi WSW 10.4 mph - N/A   Clear
4:54 PM 90.0 °F 89.1 °F 59.0 °F 35% 29.91 in 10.0 mi SW 10.4 mph - N/A   Clear
5:54 PM 86.0 °F 85.7 °F 60.1 °F 41% 29.91 in 10.0 mi SW 9.2 mph - N/A   Clear
6:54 PM 84.2 °F 84.4 °F 60.8 °F 45% 29.91 in 10.0 mi South 5.8 mph - N/A   Clear
7:54 PM 80.1 °F 81.1 °F 61.0 °F 52% 29.91 in 10.0 mi SSW 3.5 mph - N/A   Clear
8:54 PM 77.0 °F - 60.1 °F 56% 29.92 in 10.0 mi SSW 3.5 mph - N/A   Clear
9:54 PM 75.9 °F - 60.1 °F 58% 29.93 in 10.0 mi SW 3.5 mph - N/A   Clear
10:54 PM 73.0 °F - 61.0 °F 66% 29.93 in 10.0 mi Calm Calm - N/A   Clear
11:54 PM 72.0 °F - 60.1 °F 66% 29.93 in 10.0 mi Calm Calm - N/A   Clear